Weather in Berkat-Yurt

Russia / Chechen Republic     43°19′56″N   45°49′23″E
temp.,
°C
wind,
m/s
gust,
m/s
humid.,
%
clouds,
%
prec.,
mm/h
press.,
hPa
HPBL,
m
25 october, mon
mon2500:00+13sw115896 0.0 101616
03:00+13wsw1265100 0.0 101745
06:00+12wnw4778100 0.3 1019627
09:00+8wnw5880100 2.5 10251115
12:00+6wnw5691100 1.9 1027834
15:00+5w4893100 3.1 1028826
18:00+5w5791100 2.8 1031780
21:00+5w4691100 4.4 1032764
26 october, tue
tue2600:00+5wnw3590100 1.4 1032903
03:00+5wsw2385100 3.0 1033523
06:00+5sw2284100 0.2 1033333
09:00+7nnw1272100 0.2 1033539
12:00+9ne225781 0.0 10321190
15:00+10ne1151100 0.0 10311405
18:00+9se1154100 0.0 1032852
21:00+8e235814 0.0 1032406
27 october, wed
wed2700:00+5e23632 0.0 1032212
03:00+4e23700 0.0 1031182
06:00+4e13740 0.0 1031199
09:00+6ene23640 0.0 1030420
12:00+11ene34480 0.0 1027872
15:00+13ene34410 0.0 10251010
18:00+9ene35650 0.0 1025317
21:00+8wsw01720 0.0 1025143
28 october, thu
thu2800:00+7wsw11760 0.0 102352
03:00+6sw23800 0.0 1023124
06:00+5ssw11770 0.0 102470
09:00+9nw01580 0.0 1024256
12:00+13nw12410 0.0 1023624
15:00+15wnw13340 0.0 1022985
18:00+12wnw11440 0.0 102331
21:00+10sw22530 0.0 102348
29 october, fri
fri2900:00+9sw12600 0.0 102343
03:00+8sw22630 0.0 102343
06:00+7sw22620 0.0 102455
09:00+10w12500 0.0 1025320
12:00+13nw224237 0.0 1024959
15:00+14nnw124330 0.0 10241264
18:00+12nne1252100 0.0 1026136
21:00+11sse0153100 0.0 102758